[[{"header":{"parameterUnit":"m.s-1","parameterCategory":1,"la1":30.2991,"la2":30.254,"lo1":-89.0895,"lo2":-89.0444,"dy":0.0017,"dx":0.0017,"nx":28,"ny":28,"refTime":"2025-05-30T03:00:00:Z","depth":0,"parameterNumber":2,"parameterNumberName":"U-component_of_WINDS"},"data":[0,0,0,0,0,0,0,0,0,0,0,0,0,0,0,0,0,0,0,0,0,0,0,0,0,0,0,0,0,0,0,0,0,0,0,0,0,0,0,0,0,0,0,0,0,0,0,0,0,0,0,0,0,0,0,0,0,0,1.8501,1.8502,0,1.862,1.8621,1.8623,1.8667,1.8667,1.8667,1.8666,1.8792,1.8796,1.88,0,0,0,0,0,0,0,0,0,0,0,0,0,1.8315,1.8318,1.8501,1.8502,1.8504,1.862,1.8621,1.8623,1.8667,1.8667,1.8666,1.8666,1.8791,1.8796,1.88,0,0,0,0,0,0,0,0,0,0,0,0,0,1.8411,1.8319,1.85,1.854,1.8544,1.8619,1.8621,1.8623,1.8668,1.8667,1.8666,1.8666,1.879,1.8795,1.8801,1.8847,0,0,1.8818,1.882,0,0,0,0,0,0,0,0,1.8406,1.8418,1.8532,1.8537,1.8542,1.8628,1.8602,1.8698,1.8668,1.8621,1.8666,1.8666,1.8739,1.8748,1.8772,1.8853,1.8858,1.8818,1.8822,1.8824,1.8826,0,0,0,0,0,0,0,1.8399,1.8413,1.8548,1.8534,1.854,1.8553,1.8566,1.8621,1.8682,1.8625,1.8628,1.8642,1.8741,1.8767,1.8775,1.886,1.8818,1.8823,1.8827,1.8829,1.8985,1.8986,0,0,0,0,0,0,1.8385,1.8407,1.8544,1.8551,1.8471,1.8556,1.8571,1.8601,1.8681,1.8693,1.8642,1.8643,1.8757,1.8769,1.878,1.8839,1.8824,1.8829,1.8832,1.8984,1.8985,1.8986,0,0,0,0,0,0,1.8381,1.8397,1.8539,1.848,1.8499,1.856,1.8594,1.8604,1.8629,1.8694,1.8706,1.8656,1.8757,1.8772,1.883,1.8844,1.8832,1.8837,1.8983,1.8984,1.8986,1.8958,0,0,0,0,0,0,1.8376,1.8395,1.8412,1.848,1.8502,1.8586,1.8595,1.8607,1.8638,1.8641,1.8711,1.8722,1.8758,1.8821,1.8835,1.8852,1.8841,1.8982,1.8984,1.8985,1.8958,1.8958,1.8958,0,0,0,0,0,1.8369,1.8401,1.8413,1.8429,1.8525,1.8586,1.8599,1.8639,1.8639,1.8658,1.8699,1.8719,1.884,1.8827,1.8843,1.8861,1.8981,1.8983,1.8985,1.8958,1.8958,1.8958,0,0,0,0,0,0,1.8334,1.841,1.8425,1.8479,1.8526,1.8594,1.8618,1.8638,1.8687,1.8687,1.8736,1.8752,1.8805,1.8839,1.8823,1.891,1.8912,1.8917,1.8886,1.8887,1.8887,1.8878,1.8846,0,0,0,0,0,1.8332,1.8375,1.844,1.8482,1.8504,1.8557,1.8585,1.8612,1.8663,1.8683,1.8729,1.8778,1.8828,1.8859,1.8908,1.8963,1.8979,1.8984,1.8984,1.8984,1.8988,1.902,1.9023,1.8992,1.8992,1.8992,0,0,1.833,1.8377,1.8401,1.8476,1.8515,1.8559,1.8573,1.8619,1.8652,1.8691,1.8747,1.8782,1.8841,1.8897,1.8925,1.8928,1.9,1.8986,1.8985,1.899,1.9022,1.9025,1.9027,1.8993,1.8993,1.8993,0,0,1.8348,1.8388,1.8427,1.8466,1.8524,1.8559,1.8569,1.8634,1.8658,1.8716,1.8745,1.8786,1.887,1.8911,1.8942,1.8976,1.8996,1.899,1.8992,1.9022,1.9024,1.9027,1.9039,1.9043,1.8994,1.8994,1.8994,0,1.8338,1.8404,1.8445,1.8489,1.8521,1.8557,1.8597,1.8634,1.8706,1.8728,1.873,1.8835,1.8877,1.8944,1.8952,1.8976,1.8989,1.8983,1.9021,1.9023,1.9026,1.9038,1.9043,1.8993,1.8993,1.8993,1.8993,0,1.8389,1.8435,1.846,1.8527,1.8562,1.8604,1.8653,1.8684,1.8708,1.8743,1.8801,1.8853,1.8913,1.893,1.8955,1.9001,1.9,1.9011,1.9014,1.9027,1.904,1.9045,1.8991,1.8992,1.8992,1.8992,0,0,1.8389,1.8478,1.8486,1.8517,1.8585,1.8621,1.8666,1.8723,1.8749,1.8798,1.8837,1.8906,1.8916,1.8952,1.8981,1.9008,1.9032,1.9016,1.9018,1.9017,1.9086,1.9077,1.9082,1.9046,1.9047,1.9048,1.9081,0,1.8416,1.8495,1.8533,1.8596,1.8639,1.8673,1.8712,1.8758,1.8792,1.8834,1.8873,1.8921,1.8931,1.8953,1.8981,1.9023,1.9046,1.9021,1.9083,1.9085,1.9067,1.9089,1.908,1.9109,1.9086,1.9087,1.9087,0,1.8458,1.8505,1.8572,1.8634,1.8654,1.8688,1.8743,1.8783,1.8837,1.886,1.8899,1.8927,1.8977,1.8976,1.9045,1.9027,1.9055,1.9079,1.9082,1.9089,1.9087,1.9097,1.9119,1.9123,1.9095,1.9095,1.9094,0,1.8451,1.8532,1.8582,1.8607,1.8681,1.8704,1.8737,1.8789,1.8821,1.8871,1.8892,1.8947,1.8977,1.9019,1.9062,1.9057,1.9127,1.913,1.9148,1.9147,1.9161,1.916,1.9189,1.9179,1.9179,1.9179,1.9179,0,1.8477,1.8517,1.858,1.8611,1.8656,1.87,1.8745,1.878,1.8826,1.8866,1.8899,1.8936,1.8989,1.9033,1.9067,1.9119,1.9133,1.9153,1.9162,1.915,1.9148,1.9169,1.9168,1.918,1.918,1.918,1.9179,0,1.8477,1.8521,1.8578,1.8643,1.866,1.8691,1.8747,1.8779,1.8815,1.8864,1.8879,1.8935,1.8988,1.9034,1.9105,1.9128,1.9181,1.9192,1.9163,1.9167,1.9183,1.9181,1.9227,1.9235,1.922,1.922,1.922,0,1.8491,1.8522,1.859,1.8618,1.8649,1.8694,1.8727,1.8772,1.8804,1.8868,1.8892,1.8947,1.8994,1.9077,1.9125,1.918,1.9192,1.9204,1.92,1.9188,1.9192,1.919,1.9193,1.9204,1.9204,1.9204,1.9204,0,1.8511,1.8531,1.8576,1.8628,1.8666,1.871,1.8755,1.8776,1.883,1.8865,1.8919,1.8955,1.9026,1.9081,1.914,1.9175,1.9199,1.9205,1.9212,1.92,1.9182,1.9192,1.9163,1.9203,1.9203,1.9203,1.9204,1.9204,1.8519,1.8548,1.86,1.8649,1.8687,1.8729,1.8762,1.8801,1.8846,1.8907,1.8931,1.8986,1.904,1.9122,1.9156,1.9201,1.9205,1.9215,1.9218,1.922,1.9218,1.9175,1.9212,1.9212,1.9212,1.9212,1.9212,0,1.854,1.8576,1.862,1.8681,1.872,1.8738,1.8788,1.882,1.8867,1.8915,1.8959,1.9022,1.9075,1.9127,1.9183,1.9209,1.9221,1.9222,1.922,1.9228,1.9211,1.9199,1.9211,1.9211,1.9211,1.9211,1.9211,1.9211,1.8556,1.8606,1.8633,1.8703,1.8738,1.8791,1.8818,1.8857,1.8895,1.8962,1.9006,1.9039,1.9089,1.9149,1.9199,1.9213,1.9232,1.923,1.9247,1.923,1.9229,1.9229,1.9218,1.9234,1.9234,1.9261,1.9261,1.9261]},{"header":{"parameterUnit":"m.s-1","parameterCategory":1,"la1":30.2991,"la2":30.254,"lo1":-89.0895,"lo2":-89.0444,"dy":0.0017,"dx":0.0017,"nx":28,"ny":28,"refTime":"2025-05-30T03:00:00:Z","depth":0,"parameterNumber":3,"parameterNumberName":"V-component_of_WINDS"},"data":[0,0,0,0,0,0,0,0,0,0,0,0,0,0,0,0,0,0,0,0,0,0,0,0,0,0,0,0,0,0,0,0,0,0,0,0,0,0,0,0,0,0,0,0,0,0,0,0,0,0,0,0,0,0,0,0,0,0,0.98,0.98,0,0.9823,0.9823,0.9824,0.9743,0.9741,0.9738,0.9736,0.9763,0.9766,0.9769,0,0,0,0,0,0,0,0,0,0,0,0,0,0.9685,0.9687,0.98,0.98,0.98,0.9823,0.9823,0.9824,0.9744,0.9741,0.9738,0.9735,0.9762,0.9765,0.9769,0,0,0,0,0,0,0,0,0,0,0,0,0,0.9724,0.9688,0.9799,0.9763,0.976,0.9823,0.9823,0.9824,0.9744,0.9741,0.9737,0.9733,0.9761,0.9765,0.9769,0.987,0,0,0.9783,0.9785,0,0,0,0,0,0,0,0,0.9722,0.9729,0.9768,0.9765,0.9762,0.9776,0.9793,0.9839,0.9745,0.975,0.9736,0.9732,0.977,0.9774,0.9786,0.9871,0.9872,0.9783,0.9786,0.9788,0.9789,0,0,0,0,0,0,0,0.9719,0.9727,0.9809,0.9769,0.9765,0.9745,0.9747,0.9801,0.9781,0.975,0.9744,0.9747,0.9768,0.9782,0.9786,0.9873,0.9783,0.9787,0.979,0.9792,1.0036,1.0039,0,0,0,0,0,0,0.9721,0.9725,0.9808,0.981,0.9733,0.975,0.9752,0.9776,0.978,0.9777,0.9751,0.9744,0.9776,0.9781,0.9787,0.9901,0.9788,0.9792,0.9795,1.0032,1.0036,1.004,0,0,0,0,0,0,0.9719,0.973,0.9807,0.9766,0.9774,0.9756,0.9783,0.9778,0.9792,0.978,0.9777,0.9769,0.9774,0.9781,0.9848,0.9901,0.9794,0.9798,1.0027,1.0033,1.0038,1.0132,0,0,0,0,0,0,0.9716,0.9729,0.9768,0.9767,0.9777,0.9869,0.9787,0.9781,0.9799,0.9791,0.9796,0.9794,0.9771,0.9842,0.9853,0.9905,0.9802,1.0022,1.003,1.0037,1.0124,1.014,1.0154,0,0,0,0,0,0.9712,0.9795,0.977,0.9781,0.9824,0.9872,0.9877,0.9849,0.9804,0.9842,0.9834,0.9794,0.9894,0.985,0.9861,0.9916,1.0019,1.0028,1.0036,1.0118,1.0137,1.0154,0,0,0,0,0,0,0.9805,0.9794,0.9767,0.9852,0.9863,0.9858,0.9905,0.9872,0.9897,0.9888,0.9852,0.9854,0.9927,0.9929,0.988,1.001,0.9949,0.996,1.0007,1.0025,1.004,1.0037,0.9806,0,0,0,0,0,0.9834,0.9873,0.9863,0.9939,0.9946,0.9925,0.9945,0.9921,0.9932,0.9937,0.9934,0.9946,0.9979,1.0003,1.0034,1.0124,1.0122,1.0167,1.0182,1.0194,1.0204,1.0247,1.0265,1.0068,1.0068,1.0068,0,0,0.9897,0.9896,0.9924,0.9957,0.9963,1.0003,0.993,0.9977,1.0006,0.9944,1.0006,1.0005,1.0016,1.0094,1.0129,1.0098,1.0258,1.0205,1.0215,1.0218,1.0258,1.0276,1.0293,1.0074,1.0073,1.0072,0,0,1.0031,1.0036,1.0097,1.0103,1.0112,1.0097,1.0112,1.0112,1.0107,1.0169,1.0122,1.0156,1.0217,1.0225,1.0237,1.0369,1.0332,1.0381,1.0458,1.05,1.0516,1.0529,1.0573,1.0589,1.039,1.0391,1.0391,0,1.0108,1.0167,1.0133,1.0182,1.0196,1.014,1.02,1.0209,1.0229,1.0239,1.0204,1.0274,1.0279,1.0356,1.0387,1.0401,1.0414,1.0379,1.0516,1.0529,1.0541,1.0582,1.0599,1.0396,1.0396,1.0395,1.0394,0,1.0258,1.03,1.0348,1.0364,1.0385,1.044,1.0413,1.0438,1.0412,1.04,1.0462,1.0464,1.0492,1.0509,1.0486,1.0582,1.0561,1.0522,1.0459,1.0566,1.0604,1.062,1.0404,1.0402,1.0401,1.0399,0,0,1.0453,1.0447,1.0465,1.0469,1.0473,1.0504,1.0555,1.058,1.06,1.0615,1.0655,1.0705,1.0666,1.068,1.0657,1.0695,1.0794,1.065,1.065,1.0674,1.0895,1.0923,1.0942,1.077,1.0773,1.0776,1.0893,0,1.0581,1.0666,1.0635,1.0722,1.0757,1.0702,1.0746,1.0753,1.0742,1.0771,1.076,1.0794,1.0743,1.075,1.0785,1.0775,1.0838,1.0767,1.0805,1.0807,1.0801,1.0962,1.0992,1.1103,1.0908,1.0911,1.0912,0,1.0742,1.0759,1.0849,1.0841,1.0855,1.0895,1.0913,1.0941,1.0947,1.0936,1.095,1.0917,1.0965,1.0903,1.0967,1.0919,1.0933,1.093,1.0933,1.0934,1.0864,1.0963,1.1138,1.1153,1.0936,1.0934,1.0932,0,1.087,1.0916,1.0973,1.098,1.0974,1.1002,1.1002,1.1003,1.1019,1.1035,1.1044,1.1067,1.1079,1.1097,1.1071,1.1029,1.1137,1.1074,1.1127,1.1128,1.1151,1.115,1.1327,1.1166,1.1166,1.1165,1.1165,0,1.1014,1.107,1.1029,1.1065,1.1125,1.1089,1.1149,1.1142,1.1143,1.1176,1.1132,1.1163,1.1128,1.1155,1.1136,1.1189,1.1196,1.1187,1.1181,1.1189,1.119,1.1196,1.1187,1.117,1.1169,1.1168,1.1167,0,1.1166,1.1142,1.12,1.1189,1.1187,1.1231,1.1221,1.1252,1.1238,1.1279,1.1287,1.1264,1.1294,1.1269,1.13,1.1286,1.1355,1.134,1.1353,1.1347,1.1401,1.1395,1.1586,1.1607,1.1436,1.1438,1.1439,0,1.1259,1.13,1.1291,1.1308,1.1309,1.1338,1.1352,1.1318,1.1335,1.1341,1.1372,1.1397,1.1415,1.1465,1.1451,1.1473,1.1456,1.1521,1.1459,1.1464,1.1452,1.1448,1.145,1.1533,1.1535,1.1537,1.1538,0,1.1424,1.1409,1.143,1.1446,1.1464,1.1476,1.1485,1.1502,1.1466,1.1487,1.1515,1.1529,1.1557,1.1582,1.1598,1.1597,1.1561,1.1558,1.1571,1.1579,1.1583,1.1577,1.1383,1.1553,1.1552,1.1551,1.155,1.1549,1.1546,1.1578,1.1575,1.1599,1.1601,1.1609,1.1636,1.1624,1.1646,1.1665,1.1644,1.1677,1.1678,1.1696,1.1698,1.1724,1.1696,1.1716,1.1721,1.1725,1.1731,1.1581,1.1727,1.1727,1.1726,1.1726,1.1726,0,1.1706,1.17,1.1723,1.1734,1.1752,1.1715,1.1721,1.1739,1.1769,1.1772,1.1789,1.182,1.1843,1.183,1.1849,1.1871,1.1855,1.1877,1.1874,1.1873,1.1756,1.1741,1.189,1.189,1.189,1.189,1.189,1.1889,1.1791,1.184,1.1824,1.1874,1.1868,1.1898,1.1904,1.1911,1.1912,1.1947,1.1965,1.1956,1.1951,1.1969,1.1988,1.1983,1.1991,1.2018,1.2008,1.1898,1.1882,1.1866,1.1852,1.2021,1.2021,1.2121,1.2122,1.2123]}]]